Etusivu
METAR-TAF:

METAR-TAF

Lentoasemat :

Starkville, Mississippi, Yhdysvallat

Leveyspiiri: 33-25-59N, Pituuspiiri: 088-50-55W, korkeus merenpinnasta: 101 m

Tämänhetkinen sää

Tämä raportti tehtiin 25 minuuttia sitten, kello 20.55 UTC
Tuuli 3 kn pohjoisesta
Lämpötila 14°C
Kosteus 33%
Ilmanpaine 1020 hPa
Näkyvyys: 16.1 km
selkeää

METAR: KSTF 162055Z AUTO 01003KT 10SM CLR 14/M02 A3012 RMK AO2

Aika: 15:20 (21:20 UTC)


TAF: puuttuu

Säähavainnot ja -ennusteet yli 4000 lentoasemalta (METAR- ja TAF-raportit).

Käytössä olevat sääasemat on merkitty karttaan keltaisilla ja punaisilla pisteillä.

Aseta hiiri pisteen päälle nähdäksesi sääaseman nimen.

Klikkaa sitten nähdäksesi säähavainnot ja -ennusteet.

Kartan vaihtaminen: klikkaa mustalla rastilla varustettuja vihreitä pisteitä, niin voit zoomata sisään; viivalla varustettua vihreää pistettä, niin voit zoomata ulos tai vihreitä nuolia, niin pääset viereisille kartoille.


METAR-TAF: